Location: Azenweiler
(47.8027°N, 9.4096°E)
Time: 02:50:51
(UTC+00:00)

Cosmos 1626 Rocket - Pass Details

Date: 19 March 2026
Orbit: 596 x 624 km, 82.5° (Epoch: 13 April)

Event Time Altitude Azimuth Distance (km) Brightness Sun altitude
Rises 02:28:18 0° 2° (N) 2,894 7.5 -29.1°
Reaches altitude 10° 02:31:03 10° 19° (NNE) 1,978 6.8 -28.7°
Maximum altitude 02:34:19 20° 68° (ENE) 1,414 6.1 -28.3°
Drops below altitude 10° 02:37:32 10° 116° (ESE) 1,953 6.4 -27.9°
Sets 02:40:13 0° 134° (SE) 2,846 7.1 -27.5°
